User: anonymous
Location: Ostrava
(49.8330°N, 18.2830°E)
Time: 07:16:14
(UTC+02:00)
Language:

NOAA 19 - Orbit

View from above orbital plane
View from above orbital plane
View from above satellite
View from above satellite

Ground track
Ground track

The orbit data is extracted from the following two-line orbital elements,

1 33591U 09005A   14205.49054916  .00000186  00000-0  12664-3 0  3143
2 33591 098.9463 150.4197 0014299 019.4333 089.7652 14.11738246281259
Epoch (UTC): 24 July 2014 11:46:23
Eccentricity: 0.0014299
inclination: 98.9463°
perigee height: 843 km
apogee height: 864 km
right ascension of ascending node: 150.4197°
argument of perigee: 19.4333°
revolutions per day: 14.11738246
mean anomaly at epoch: 89.7652°
orbit number at epoch: 28125

The dashed part of the orbit path shows where the satellite is in the earth's shadow,  

DLR